Regional Weather Roundup
Issued by NWS Sioux Falls, SD

Home | Current Version | Previous Version | Graphics & Text | Print | Product List | Glossary Off
Versions: 1 2 3 4 5 6 7 8 9 10 11 12 13 14 15 16 17 18 19 20 21 22 23 24 25 26 27 28 29 30 31 32 33 34 35 36 37 38 39 40 41 42 43 44 45 46 47 48 49 50

000
ASUS43 KFSD 260502
RWRFSD

WEATHER ROUNDUP FOR SE SOUTH DAKOTA/SW MINNESOTA/NW IOWA
NATIONAL WEATHER SERVICE SIOUX FALLS SD
1100 PM CST THU DEC 25 2014

NOTE: "FAIR" INDICATES FEW OR NO CLOUDS BELOW 12,000 FEET WITH NO
SIGNIFICANT WEATHER AND OR OBSTRUCTIONS TO VISIBILITY.


SDZ038>040-050-052>070-260600-
SOUTHEAST SOUTH DAKOTA

CITY           SKY/WX    TMP DP  RH WIND       PRES   REMARKS
CHAMBERLAIN    NOT AVBL
HURON          LGT SNOW  26  24  92 N15       29.93S FOG     WCI  14
MADISON        CLOUDY    27  27 100 N17G23    29.84R WCI  14
MITCHELL       CLOUDY    28  25  88 N17       29.90R WCI  16
SIOUX FALLS    CLOUDY    29  26  89 N14       29.82S WCI  18
WINNER         LGT SNOW  26  23  88 N16       29.94R FOG     WCI  14
YANKTON        CLOUDY    30  27  86 N16       29.84R WCI  19
$$

MNZ071-072-080-081-089-090-097-098-260600-
SOUTHWEST MINNESOTA

CITY           SKY/WX    TMP DP  RH WIND       PRES   REMARKS
FAIRMONT       CLOUDY    32  28  86 N10       29.79S WCI  24
JACKSON        CLOUDY    32  30  93 N14       29.79S WCI  22
LUVERNE        CLOUDY    32  30  93 N13G20    29.81R WCI  22
MARSHALL       CLOUDY    28  25  86 N15       29.87R WCI  17
MONTEVIDEO     CLOUDY    28  28 100 N13       29.91R WCI  18
PIPESTONE      CLOUDY    28  27  93 NE13G20   29.81R WCI  18
REDWOOD FALLS  CLOUDY    33  31  92 N7        29.85R FOG     WCI  27
TRACY          CLOUDY    31  31  99 N14       29.84S FOG     WCI  21
WINDOM         CLOUDY    30  30 100 N14       29.80S FOG     WCI  20
WORTHINGTON    CLOUDY    30 -17  12 N13G18    29.80S WCI  20
$$

IAZ001>003-012>014-020>022-031-032-NEZ013-014-SDZ071-260600-
NORTHWEST IOWA

CITY           SKY/WX    TMP DP  RH WIND       PRES   REMARKS
CHEROKEE       CLOUDY    32  32 100 N7        29.75S WCI  26
DENISON        PTCLDY    32  32 100 CALM      29.71R
ESTHERVILLE    CLOUDY    31  30  96 N12       29.77S WCI  22
LE MARS        CLOUDY    34  32  93 N13       29.78R WCI  25
ORANGE CITY    CLOUDY    34  30  86 NE10      29.77R WCI  26
SIOUX CITY     CLOUDY    35  31  85 N10       29.77R WCI  27
SPENCER        CLOUDY    33  30  88 N14       29.77S WCI  23
$$

ABBREVIATIONS USED IN REMARKS
   TC - TEMPERATURE IN CELSIUS
  WCI - WIND CHILL INDEX
   HX - HEAT INDEX
  VSB - VISIBILITY



USA.gov is the U.S. government's official web portal to all federal, state and local government web resources and services.